Home   Weather   Huelva   Past weeks

Flag for Spain Past Weather in Huelva, Spain — Yesterday and Last 2 Weeks

Now
63 °F

Partly sunny.


Feels Like: 63 °F
Forecast: 59 / 63 °F
Wind: 17 mph from Southeast

Location: Rota Airport

Current Time: Dec 3, 2016 at 4:40:06 pm

Latest Report: Dec 3, 2016 at 4:00 pm


Visibility: N/A

Pressure: 29.71 "Hg

Humidity: 83%

Dew Point: 57 °F

Location of HuelvaLocation

Past Weather in Huelva — Graph

°F

Huelva Temperature Yesterday

Maximum temperature yesterday: 66 °F (at 3:00 pm)
Minimum temperature yesterday: 52 °F (at 8:00 am)
Average temperature yesterday: 59 °F

High & Low Weather Summary for the Past Weeks

 TemperatureHumidityPressure
High66 °F (Nov 20, 12:00 pm)100% (Nov 20, 10:00 pm)30.21 "Hg (Nov 20, 10:00 pm)
Low46 °F (Nov 24, 3:00 am)55% (Nov 23, 5:00 pm)29.59 "Hg (Nov 22, 4:00 pm)
Average57 °F84%29.88 "Hg
* Reported Nov 18 3:00 pm — Dec 3 3:00 pm, Huelva, Weather by CustomWeather, © 2016

Note: Actual official high and low records may vary slightly from our data, if they occured in-between our weather recording intervals... More about our weather records

Advertising

Huelva Weather History for the Previous 24 Hours

Scroll right to see more
 ConditionsComfort  
Time TempWeatherWind HumidityBarometerVisibility
3:00 pm
Sat, Dec 3
63 °FPartly sunny.20 mph83%29.68 "HgN/A
2:00 pm63 °FPartly sunny.21 mph83%29.71 "HgN/A
1:00 pm63 °FScattered clouds.18 mph88%29.77 "HgN/A
12:00 pm63 °FScattered clouds.16 mph83%29.80 "HgN/A
11:00 am61 °FScattered clouds.16 mph88%29.80 "HgN/A
10:00 am59 °FPartly sunny.14 mph94%29.83 "HgN/A
9:00 am59 °FPartly sunny.15 mph94%29.83 "HgN/A
8:00 am59 °FLight rain. Passing clouds.13 mph94%29.83 "HgN/A
7:00 am59 °FLight rain. Passing clouds.12 mph94%29.83 "HgN/A
6:00 am59 °FPassing clouds.12 mph94%29.83 "HgN/A
5:00 am61 °FPassing clouds.12 mph88%29.83 "Hg6 mi
4:00 am59 °FLight rain. Passing clouds.13 mph94%29.86 "Hg4 mi
3:00 am59 °FRain. Partly cloudy.3 mph94%29.86 "Hg3 mi
2:00 am59 °FRain. Partly cloudy.13 mph94%29.89 "Hg3 mi
1:00 am59 °FRain. Partly cloudy.14 mph94%29.92 "Hg3 mi
12:00 am59 °FRain. Passing clouds.15 mph94%29.92 "Hg3 mi
11:00 pm
Fri, Dec 2
59 °FLight rain. Passing clouds.10 mph94%29.95 "Hg6 mi
10:00 pm61 °FLight rain. Passing clouds.10 mph94%29.95 "HgN/A
9:00 pm61 °FLight rain. Passing clouds.12 mph88%29.95 "HgN/A
8:00 pm61 °FLight rain. Passing clouds.10 mph88%29.98 "Hg6 mi
7:00 pm61 °FLight rain. Clear.10 mph88%29.98 "Hg6 mi
6:00 pm63 °FSunny.12 mph77%29.98 "Hg10 mi
5:00 pm63 °FPassing clouds.10 mph77%29.98 "HgN/A
4:00 pm64 °FPassing clouds.8 mph78%29.98 "HgN/A
Weather by CustomWeather, © 2016

See weather overviewHow to use our weather pages